Voltar ao catálogo

JILIN-01-08

AtivoCiênciaSSO
NORAD 43160·PAYLOAD·🇨🇳 China

Lançado Jan 19, 2018 de Jiuquan Satellite Launch Center

Loading…

Próximas Passagens (próximas 24 horas)

TLE

AtualizadoSource: Space-Track

Época: Sep 14, 2026, 13:54 UTC

1 43160U 18008F   26257.57934151  .00005367  00000-0  16178-3 0  9995
2 43160  97.1797 274.4032 0008076 108.2097 252.0026 15.34693434478655

Acompanhe JILIN-01-08 em tempo real com AllMySat

Download on the App Store